TimePDT,TemperatureF,Dew PointF,Humidity,Sea Level PressureIn,VisibilityMPH,Wind Direction,Wind SpeedMPH,Gust SpeedMPH,PrecipitationIn,Events,Conditions,WindDirDegrees,DateUTC
12:54 AM,53.1,50.0,89,29.99,10.0,Calm,Calm,-,N/A,,Clear,0,2013-07-08 07:54:00
1:54 AM,52.0,48.9,89,30.00,10.0,SSW,5.8,-,N/A,,Clear,200,2013-07-08 08:54:00
2:54 AM,52.0,50.0,93,30.01,10.0,South,4.6,-,N/A,,Clear,180,2013-07-08 09:54:00
3:54 AM,51.1,48.9,92,30.02,10.0,SSW,5.8,-,N/A,,Clear,200,2013-07-08 10:54:00
4:16 AM,53.1,51.1,93,30.03,10.0,SSW,3.5,-,N/A,,Mostly Cloudy,200,2013-07-08 11:16:00
4:54 AM,55.0,52.0,89,30.03,10.0,Calm,Calm,-,N/A,,Overcast,0,2013-07-08 11:54:00
5:54 AM,54.0,51.1,90,30.05,10.0,Calm,Calm,-,N/A,,Overcast,0,2013-07-08 12:54:00
6:54 AM,55.0,52.0,89,30.06,10.0,WSW,3.5,-,N/A,,Overcast,240,2013-07-08 13:54:00
7:54 AM,55.9,53.1,90,30.08,7.0,SSW,3.5,-,N/A,,Overcast,210,2013-07-08 14:54:00
8:54 AM,57.0,52.0,83,30.10,10.0,SSW,5.8,-,N/A,,Overcast,210,2013-07-08 15:54:00
9:54 AM,57.9,52.0,81,30.11,10.0,SSW,5.8,-,N/A,,Overcast,210,2013-07-08 16:54:00
10:54 AM,60.1,53.1,78,30.12,10.0,Variable,5.8,-,N/A,,Overcast,0,2013-07-08 17:54:00
11:54 AM,62.1,54.0,75,30.12,10.0,South,8.1,-,N/A,,Overcast,170,2013-07-08 18:54:00
12:01 PM,63.0,54.0,72,30.12,10.0,SSE,4.6,-,N/A,,Overcast,160,2013-07-08 19:01:00
12:54 PM,66.0,55.0,68,30.12,10.0,Variable,5.8,-,N/A,,Mostly Cloudy,0,2013-07-08 19:54:00
1:08 PM,66.0,54.0,65,30.11,10.0,Calm,Calm,-,N/A,,Mostly Cloudy,0,2013-07-08 20:08:00
1:54 PM,69.1,55.0,61,30.10,10.0,Calm,Calm,-,N/A,,Partly Cloudy,0,2013-07-08 20:54:00
2:54 PM,73.0,55.9,55,30.09,10.0,Calm,Calm,-,N/A,,Partly Cloudy,0,2013-07-08 21:54:00
3:54 PM,75.9,57.9,54,30.08,10.0,NE,5.8,-,N/A,,Clear,50,2013-07-08 22:54:00
4:54 PM,75.9,57.9,54,30.08,10.0,North,8.1,-,N/A,,Clear,10,2013-07-08 23:54:00
5:54 PM,75.9,59.0,56,30.06,10.0,NNE,8.1,-,N/A,,Clear,30,2013-07-09 00:54:00
6:54 PM,75.9,59.0,56,30.06,10.0,NNE,9.2,-,N/A,,Clear,30,2013-07-09 01:54:00
7:54 PM,73.9,59.0,59,30.07,10.0,NNE,5.8,-,N/A,,Clear,30,2013-07-09 02:54:00
8:54 PM,70.0,59.0,68,30.07,10.0,North,6.9,-,N/A,,Clear,10,2013-07-09 03:54:00
9:54 PM,66.0,57.9,75,30.09,10.0,Calm,Calm,-,N/A,,Clear,0,2013-07-09 04:54:00
10:54 PM,62.1,57.9,86,30.09,10.0,Calm,Calm,-,N/A,,Clear,0,2013-07-09 05:54:00
11:54 PM,59.0,57.0,93,30.09,10.0,Calm,Calm,-,N/A,,Clear,0,2013-07-09 06:54:00